CPA005 RJAA-RCTP

Flight info

Callsign CPA005
Flight time 2h 20m
Altitude 43000
Route PIGOK Y50 IGMON A1 DRAKE DRAKE1A
Aircraft B748/H-SDE3FGHIM1M2RWXY/LB1

Departure

Time 2026-05-07 13:15
Airport Narita International Airport (RJAA)

Arrival

Time 2026-05-07 15:36
Airport Taiwan Taoyuan International Airport (RCTP)
Time Latitude Longitude Altitude Speed Heading
2026-05-07 12:08 35.77005 140.37935 149 ft 0 kts 59°
2026-05-07 13:01 35.77001 140.37928 149 ft 2 kts 59°
2026-05-07 13:01 35.76993 140.37911 149 ft 2 kts 59°
2026-05-07 13:01 35.76984 140.37894 149 ft 2 kts 50°
2026-05-07 13:02 35.76972 140.37882 149 ft 2 kts 20°
2026-05-07 13:02 35.76956 140.37879 149 ft 2 kts 349°
2026-05-07 13:02 35.76948 140.37881 149 ft 0 kts 339°
2026-05-07 13:06 35.76949 140.37881 149 ft 1 kts 339°
2026-05-07 13:07 35.76961 140.37870 149 ft 3 kts 305°
2026-05-07 13:07 35.76978 140.37832 149 ft 8 kts 299°
2026-05-07 13:07 35.77019 140.37776 149 ft 9 kts 326°
2026-05-07 13:07 35.77072 140.37737 149 ft 9 kts 329°
2026-05-07 13:08 35.77123 140.37700 149 ft 8 kts 329°
2026-05-07 13:08 35.77165 140.37661 149 ft 8 kts 288°
2026-05-07 13:08 35.77149 140.37601 149 ft 7 kts 240°
2026-05-07 13:08 35.77123 140.37548 149 ft 7 kts 239°
2026-05-07 13:09 35.77099 140.37498 149 ft 7 kts 239°
2026-05-07 13:09 35.77076 140.37449 149 ft 7 kts 240°
2026-05-07 13:09 35.77057 140.37399 149 ft 6 kts 265°
2026-05-07 13:09 35.77077 140.37352 149 ft 6 kts 315°
2026-05-07 13:10 35.77113 140.37322 149 ft 6 kts 329°
2026-05-07 13:10 35.77149 140.37296 149 ft 6 kts 328°
2026-05-07 13:10 35.77184 140.37270 149 ft 6 kts 329°
2026-05-07 13:10 35.77218 140.37246 149 ft 6 kts 331°
2026-05-07 13:11 35.77251 140.37224 149 ft 5 kts 331°
2026-05-07 13:11 35.77283 140.37201 149 ft 5 kts 328°
2026-05-07 13:11 35.77313 140.37178 149 ft 5 kts 329°
2026-05-07 13:11 35.77341 140.37155 149 ft 5 kts 313°
2026-05-07 13:12 35.77348 140.37117 149 ft 5 kts 259°
2026-05-07 13:12 35.77338 140.37080 149 ft 5 kts 250°
2026-05-07 13:12 35.77323 140.37047 149 ft 4 kts 238°
2026-05-07 13:12 35.77307 140.37016 149 ft 4 kts 238°
2026-05-07 13:13 35.77292 140.36987 149 ft 4 kts 238°
2026-05-07 13:13 35.77273 140.36964 149 ft 4 kts 208°
2026-05-07 13:13 35.77249 140.36968 149 ft 4 kts 154°
2026-05-07 13:13 35.77227 140.36983 149 ft 4 kts 148°
2026-05-07 13:14 35.77146 140.37042 149 ft 29 kts 149°
2026-05-07 13:14 35.76816 140.37281 149 ft 81 kts 150°
2026-05-07 13:14 35.76192 140.37731 149 ft 126 kts 150°
2026-05-07 13:14 35.75329 140.38351 152 ft 159 kts 150°
2026-05-07 13:15 35.74358 140.39053 371 ft 165 kts 150°
2026-05-07 13:15 35.73351 140.39769 705 ft 168 kts 150°
2026-05-07 13:15 35.72340 140.40489 1105 ft 168 kts 150°
2026-05-07 13:15 35.71321 140.41225 1468 ft 170 kts 150°
2026-05-07 13:16 35.70306 140.41966 1890 ft 167 kts 150°
2026-05-07 13:16 35.69304 140.42694 2424 ft 170 kts 151°
2026-05-07 13:16 35.68296 140.43425 2973 ft 166 kts 152°
2026-05-07 13:16 35.67297 140.44146 3476 ft 169 kts 153°
2026-05-07 13:17 35.66226 140.44919 3734 ft 188 kts 153°
2026-05-07 13:17 35.65036 140.45776 3922 ft 211 kts 153°
2026-05-07 13:17 35.63688 140.46746 4125 ft 236 kts 153°
2026-05-07 13:17 35.62196 140.47820 4398 ft 259 kts 153°
2026-05-07 13:18 35.60600 140.48968 5053 ft 269 kts 153°
2026-05-07 13:18 35.59007 140.50114 5959 ft 271 kts 153°
2026-05-07 13:18 35.57364 140.51299 6781 ft 276 kts 153°
2026-05-07 13:18 35.55690 140.52505 7603 ft 281 kts 153°
2026-05-07 13:19 35.53993 140.53723 8413 ft 286 kts 153°
2026-05-07 13:19 35.52258 140.54967 9221 ft 290 kts 153°
2026-05-07 13:19 35.50506 140.56223 10045 ft 293 kts 153°
2026-05-07 13:19 35.48710 140.57509 10627 ft 308 kts 153°
2026-05-07 13:20 35.46750 140.58812 10828 ft 331 kts 162°
2026-05-07 13:20 35.44445 140.59331 11084 ft 346 kts 184°
2026-05-07 13:20 35.42097 140.58709 11785 ft 349 kts 205°
2026-05-07 13:20 35.40091 140.57068 12676 ft 349 kts 225°
2026-05-07 13:21 35.38699 140.54629 13609 ft 352 kts 245°
2026-05-07 13:21 35.38105 140.51741 14500 ft 359 kts 264°
2026-05-07 13:21 35.38323 140.48664 15421 ft 367 kts 278°
2026-05-07 13:21 35.38932 140.45599 16361 ft 373 kts 282°
2026-05-07 13:22 35.39646 140.42498 17225 ft 379 kts 283°
2026-05-07 13:22 35.40378 140.39369 17896 ft 383 kts 283°
2026-05-07 13:22 35.40701 140.37240 18338 ft 383 kts 272°
2026-05-07 13:22 35.40363 140.32896 19165 ft 386 kts 255°
2026-05-07 13:23 35.39697 140.29729 19781 ft 390 kts 255°
2026-05-07 13:23 35.39001 140.26500 20423 ft 394 kts 254°
2026-05-07 13:23 35.38282 140.23228 21064 ft 397 kts 253°
2026-05-07 13:23 35.37797 140.21054 21457 ft 400 kts 253°
2026-05-07 13:24 35.36812 140.16668 22229 ft 405 kts 253°
2026-05-07 13:24 35.36303 140.14413 22611 ft 408 kts 253°
2026-05-07 13:24 35.35538 140.11030 23180 ft 411 kts 253°
2026-05-07 13:24 35.34517 140.06521 23905 ft 417 kts 253°
2026-05-07 13:25 35.34002 140.04249 24245 ft 419 kts 253°
2026-05-07 13:25 35.33222 140.00808 24811 ft 422 kts 253°
2026-05-07 13:25 35.32434 139.97328 25356 ft 424 kts 253°
2026-05-07 13:25 35.31635 139.93840 25887 ft 426 kts 251°
2026-05-07 13:26 35.30687 139.90397 26411 ft 428 kts 249°
2026-05-07 13:26 35.29621 139.86974 26906 ft 430 kts 247°
2026-05-07 13:26 35.28527 139.83555 27371 ft 433 kts 247°
2026-05-07 13:26 35.27428 139.80110 27802 ft 435 kts 247°
2026-05-07 13:27 35.26330 139.76660 28248 ft 437 kts 247°
2026-05-07 13:27 35.25226 139.73189 28679 ft 439 kts 247°
2026-05-07 13:27 35.24109 139.69679 29052 ft 442 kts 247°
2026-05-07 13:27 35.23010 139.66226 29439 ft 444 kts 247°
2026-05-07 13:28 35.21881 139.62682 29798 ft 446 kts 247°
2026-05-07 13:28 35.20753 139.59140 30135 ft 448 kts 247°
2026-05-07 13:28 35.19617 139.55578 30441 ft 451 kts 247°
2026-05-07 13:28 35.18576 139.51938 30713 ft 454 kts 254°
2026-05-07 13:29 35.17975 139.48120 31001 ft 458 kts 259°
2026-05-07 13:29 35.17619 139.44232 31292 ft 461 kts 263°
2026-05-07 13:29 35.17419 139.40348 31560 ft 463 kts 264°
2026-05-07 13:29 35.17281 139.36416 31825 ft 465 kts 265°
2026-05-07 13:30 35.17152 139.32453 32071 ft 466 kts 265°
2026-05-07 13:30 35.17003 139.28500 32412 ft 465 kts 264°
2026-05-07 13:30 35.16826 139.24559 32768 ft 464 kts 264°
2026-05-07 13:30 35.16637 139.20632 33090 ft 463 kts 264°
2026-05-07 13:31 35.16444 139.16700 33394 ft 462 kts 264°
2026-05-07 13:31 35.16251 139.12797 33709 ft 460 kts 264°
2026-05-07 13:31 35.16055 139.08889 33991 ft 460 kts 264°
2026-05-07 13:31 35.15860 139.04989 34219 ft 460 kts 264°
2026-05-07 13:32 35.15664 139.01086 34490 ft 459 kts 264°
2026-05-07 13:32 35.15472 138.97235 34734 ft 459 kts 264°
2026-05-07 13:32 35.15276 138.93341 34945 ft 459 kts 264°
2026-05-07 13:32 35.15078 138.89449 35197 ft 458 kts 264°
2026-05-07 13:33 35.14879 138.85579 35433 ft 457 kts 264°
2026-05-07 13:33 35.14678 138.81700 35655 ft 457 kts 264°
2026-05-07 13:33 35.14477 138.77822 35886 ft 456 kts 264°
2026-05-07 13:33 35.14305 138.73955 36157 ft 454 kts 265°
2026-05-07 13:34 35.14124 138.70110 36407 ft 452 kts 264°
2026-05-07 13:34 35.13725 138.62430 36714 ft 454 kts 264°
2026-05-07 13:34 35.13519 138.58604 36834 ft 455 kts 264°
2026-05-07 13:35 35.13309 138.54738 37014 ft 454 kts 264°
2026-05-07 13:35 35.13099 138.50896 37217 ft 453 kts 264°
2026-05-07 13:35 35.12889 138.47054 37414 ft 453 kts 264°
2026-05-07 13:35 35.12679 138.43212 37639 ft 452 kts 264°
2026-05-07 13:36 35.12473 138.39430 37864 ft 451 kts 264°
2026-05-07 13:36 35.12270 138.35603 38092 ft 451 kts 265°
2026-05-07 13:36 35.12070 138.31784 38287 ft 451 kts 264°
2026-05-07 13:36 35.11860 138.27957 38459 ft 451 kts 264°
2026-05-07 13:37 35.11645 138.24140 38665 ft 450 kts 264°
2026-05-07 13:37 35.11429 138.20330 38859 ft 449 kts 264°
2026-05-07 13:37 35.11213 138.16529 39064 ft 449 kts 264°
2026-05-07 13:37 35.10998 138.12717 39251 ft 448 kts 264°
2026-05-07 13:38 35.10780 138.08927 39465 ft 447 kts 264°
2026-05-07 13:38 35.10559 138.05149 39658 ft 446 kts 264°
2026-05-07 13:38 35.10362 138.01418 39824 ft 445 kts 264°
2026-05-07 13:38 35.10153 137.97655 40107 ft 442 kts 264°
2026-05-07 13:39 35.09935 137.93930 40400 ft 439 kts 264°
2026-05-07 13:39 35.09712 137.90210 40521 ft 439 kts 264°
2026-05-07 13:39 35.09485 137.86486 40627 ft 440 kts 264°
2026-05-07 13:39 35.09258 137.82774 40784 ft 439 kts 264°
2026-05-07 13:40 35.09030 137.79060 40982 ft 437 kts 264°
2026-05-07 13:40 35.08573 137.71655 41310 ft 435 kts 264°
2026-05-07 13:40 35.08333 137.67979 41437 ft 435 kts 262°
2026-05-07 13:41 35.07802 137.64346 41523 ft 434 kts 255°
2026-05-07 13:41 35.06953 137.60815 41694 ft 432 kts 250°
2026-05-07 13:41 35.05917 137.57370 41797 ft 432 kts 249°
2026-05-07 13:41 35.04853 137.53944 42023 ft 430 kts 250°
2026-05-07 13:42 35.03844 137.50504 42221 ft 429 kts 250°
2026-05-07 13:42 35.02861 137.47107 42334 ft 430 kts 250°
2026-05-07 13:42 35.01869 137.43653 42426 ft 431 kts 250°
2026-05-07 13:42 35.00880 137.40201 42647 ft 429 kts 250°
2026-05-07 13:43 34.99895 137.36771 42776 ft 429 kts 250°
2026-05-07 13:43 34.98904 137.33326 42906 ft 429 kts 250°
2026-05-07 13:43 34.97917 137.29896 42941 ft 429 kts 250°
2026-05-07 13:44 34.95955 137.23016 42938 ft 429 kts 251°
2026-05-07 13:44 34.94026 137.16204 42937 ft 428 kts 250°
2026-05-07 13:45 34.92041 137.09339 42936 ft 428 kts 250°
2026-05-07 13:45 34.90050 137.02490 42935 ft 428 kts 250°
2026-05-07 13:46 34.88056 136.95647 42935 ft 429 kts 250°
2026-05-07 13:46 34.86062 136.88817 42934 ft 428 kts 249°
2026-05-07 13:47 34.83708 136.82214 42935 ft 428 kts 245°
2026-05-07 13:47 34.81125 136.75663 42935 ft 429 kts 245°
2026-05-07 13:48 34.78552 136.69062 42934 ft 429 kts 245°
2026-05-07 13:48 34.76023 136.62542 42934 ft 429 kts 245°
2026-05-07 13:49 34.73471 136.55958 42933 ft 429 kts 245°
2026-05-07 13:49 34.70968 136.49368 42932 ft 429 kts 246°
2026-05-07 13:50 34.68445 136.42802 42930 ft 429 kts 245°
2026-05-07 13:50 34.65889 136.36237 42929 ft 430 kts 245°
2026-05-07 13:51 34.63325 136.29672 42926 ft 430 kts 245°
2026-05-07 13:51 34.60772 136.23145 42924 ft 430 kts 245°
2026-05-07 13:52 34.58204 136.16598 42922 ft 430 kts 244°
2026-05-07 13:52 34.55440 136.10150 42919 ft 431 kts 243°
2026-05-07 13:53 34.52633 136.03707 42917 ft 432 kts 243°
2026-05-07 13:53 34.49842 135.97270 42916 ft 431 kts 243°
2026-05-07 13:54 34.47068 135.90865 42914 ft 429 kts 243°
2026-05-07 13:54 34.44283 135.84437 42914 ft 430 kts 243°
2026-05-07 13:55 34.41520 135.78005 42913 ft 431 kts 244°
2026-05-07 13:55 34.38758 135.71562 42911 ft 430 kts 243°
2026-05-07 13:56 34.35985 135.65142 42912 ft 429 kts 243°
2026-05-07 13:56 34.33222 135.58772 42913 ft 430 kts 243°
2026-05-07 13:57 34.30475 135.52455 42924 ft 430 kts 243°
2026-05-07 13:57 34.27652 135.45980 42928 ft 430 kts 243°
2026-05-07 13:58 34.24859 135.39583 42931 ft 430 kts 243°
2026-05-07 13:58 34.22067 135.33200 42932 ft 429 kts 243°
2026-05-07 13:59 34.19274 135.26827 42934 ft 429 kts 243°
2026-05-07 13:59 34.16519 135.20486 42939 ft 429 kts 243°
2026-05-07 14:00 34.13722 135.14127 42940 ft 428 kts 243°
2026-05-07 14:00 34.10916 135.07782 42941 ft 428 kts 243°
2026-05-07 14:01 34.08106 135.01440 42941 ft 429 kts 243°
2026-05-07 14:01 34.05289 134.95085 42940 ft 429 kts 243°
2026-05-07 14:02 34.02479 134.88753 42940 ft 428 kts 243°
2026-05-07 14:02 33.99674 134.82461 42938 ft 429 kts 243°
2026-05-07 14:03 33.96834 134.76109 42938 ft 431 kts 243°
2026-05-07 14:03 33.93985 134.69749 42937 ft 430 kts 243°
2026-05-07 14:04 33.91153 134.63439 42937 ft 430 kts 243°
2026-05-07 14:04 33.88307 134.57108 42938 ft 430 kts 243°
2026-05-07 14:05 33.85487 134.50764 42938 ft 429 kts 243°
2026-05-07 14:05 33.82664 134.44422 42938 ft 429 kts 243°
2026-05-07 14:06 33.79833 134.38106 42938 ft 430 kts 243°
2026-05-07 14:06 33.76985 134.31777 42938 ft 429 kts 243°
2026-05-07 14:07 33.74135 134.25460 42938 ft 429 kts 243°
2026-05-07 14:07 33.71286 134.19158 42938 ft 429 kts 243°
2026-05-07 14:08 33.68453 134.12903 42937 ft 428 kts 243°
2026-05-07 14:08 33.65601 134.06617 42935 ft 428 kts 243°
2026-05-07 14:09 33.62745 134.00334 42935 ft 429 kts 243°
2026-05-07 14:09 33.59880 133.94041 42935 ft 429 kts 243°
2026-05-07 14:10 33.57498 133.88821 42935 ft 429 kts 243°
2026-05-07 14:10 33.54151 133.81495 42935 ft 429 kts 243°
2026-05-07 14:11 33.51294 133.75254 42935 ft 429 kts 243°
2026-05-07 14:11 33.48420 133.68985 42935 ft 429 kts 243°
2026-05-07 14:12 33.46009 133.63737 42935 ft 429 kts 243°
2026-05-07 14:12 33.43142 133.57505 42935 ft 429 kts 243°
2026-05-07 14:13 33.40268 133.51231 42936 ft 429 kts 243°
2026-05-07 14:13 33.37398 133.44983 42935 ft 428 kts 243°
2026-05-07 14:14 33.34422 133.38851 42936 ft 429 kts 239°
2026-05-07 14:14 33.31042 133.32916 42936 ft 430 kts 238°
2026-05-07 14:15 33.27610 133.27034 42936 ft 431 kts 238°
2026-05-07 14:15 33.24179 133.21156 42936 ft 431 kts 238°
2026-05-07 14:16 33.20766 133.15314 42936 ft 431 kts 238°
2026-05-07 14:16 33.17331 133.09439 42936 ft 431 kts 238°
2026-05-07 14:17 33.13894 133.03571 42937 ft 431 kts 238°
2026-05-07 14:17 33.10456 132.97709 42937 ft 431 kts 238°
2026-05-07 14:18 33.07018 132.91856 42937 ft 431 kts 238°
2026-05-07 14:18 33.03594 132.86038 42938 ft 431 kts 238°
2026-05-07 14:19 33.00146 132.80186 42938 ft 431 kts 238°
2026-05-07 14:19 32.96706 132.74358 42939 ft 430 kts 238°
2026-05-07 14:20 32.93257 132.68524 42940 ft 431 kts 238°
2026-05-07 14:20 32.89803 132.62690 42939 ft 431 kts 238°
2026-05-07 14:21 32.86352 132.56870 42940 ft 430 kts 238°
2026-05-07 14:21 32.82895 132.51049 42941 ft 430 kts 238°
2026-05-07 14:22 32.79457 132.45269 42941 ft 431 kts 238°
2026-05-07 14:22 32.75988 132.39447 42942 ft 431 kts 238°
2026-05-07 14:23 32.72520 132.33635 42943 ft 431 kts 238°
2026-05-07 14:23 32.69053 132.27832 42943 ft 431 kts 238°
2026-05-07 14:24 32.65581 132.22032 42945 ft 431 kts 238°
2026-05-07 14:24 32.62127 132.16270 42945 ft 431 kts 238°
2026-05-07 14:25 32.58645 132.10470 42946 ft 432 kts 238°
2026-05-07 14:25 32.55157 132.04669 42948 ft 432 kts 238°
2026-05-07 14:26 32.51661 131.98865 42950 ft 431 kts 238°
2026-05-07 14:26 32.48177 131.93088 42950 ft 431 kts 239°
2026-05-07 14:27 32.44688 131.87314 42952 ft 431 kts 239°
2026-05-07 14:27 32.41197 131.81543 42954 ft 431 kts 239°
2026-05-07 14:28 32.37729 131.75819 42970 ft 431 kts 239°
2026-05-07 14:28 32.34229 131.70051 42968 ft 431 kts 239°
2026-05-07 14:29 32.30731 131.64296 42967 ft 431 kts 238°
2026-05-07 14:29 32.27231 131.58546 42967 ft 431 kts 238°
2026-05-07 14:30 32.23722 131.52790 42967 ft 432 kts 239°
2026-05-07 14:30 32.20207 131.47032 42967 ft 432 kts 238°
2026-05-07 14:31 32.16692 131.41284 42969 ft 431 kts 238°
2026-05-07 14:31 32.13202 131.35584 42970 ft 431 kts 238°
2026-05-07 14:32 32.09683 131.29847 42970 ft 430 kts 238°
2026-05-07 14:32 32.06177 131.24139 42971 ft 430 kts 238°
2026-05-07 14:33 32.02660 131.18422 42972 ft 430 kts 238°
2026-05-07 14:33 31.99141 131.12710 42972 ft 431 kts 238°
2026-05-07 14:34 31.95607 131.06982 42978 ft 433 kts 238°
2026-05-07 14:34 31.92060 131.01243 42981 ft 433 kts 239°
2026-05-07 14:35 31.88537 130.95549 42985 ft 432 kts 239°
2026-05-07 14:35 31.84990 130.89826 42990 ft 432 kts 238°
2026-05-07 14:36 31.81464 130.84144 42992 ft 432 kts 239°
2026-05-07 14:36 31.77919 130.78442 42993 ft 431 kts 239°
2026-05-07 14:37 31.74368 130.72737 42994 ft 432 kts 239°
2026-05-07 14:37 31.69061 130.64227 42994 ft 432 kts 239°
2026-05-07 14:38 31.65503 130.58533 42993 ft 431 kts 239°
2026-05-07 14:38 31.61952 130.52858 42993 ft 431 kts 239°
2026-05-07 14:39 31.58399 130.47188 42993 ft 431 kts 239°
2026-05-07 14:39 31.54840 130.41518 42993 ft 431 kts 239°
2026-05-07 14:40 31.51306 130.35893 42992 ft 431 kts 238°
2026-05-07 14:40 31.47743 130.30232 42992 ft 431 kts 238°
2026-05-07 14:41 31.44170 130.24564 42991 ft 431 kts 238°
2026-05-07 14:41 31.40603 130.18913 42991 ft 431 kts 238°
2026-05-07 14:42 31.37051 130.13294 42991 ft 431 kts 238°
2026-05-07 14:42 31.33482 130.07656 42990 ft 431 kts 238°
2026-05-07 14:43 31.29902 130.02008 42990 ft 431 kts 238°
2026-05-07 14:43 31.26327 129.96377 42990 ft 431 kts 238°
2026-05-07 14:44 31.22748 129.90747 42990 ft 432 kts 238°
2026-05-07 14:44 31.19161 129.85114 42990 ft 432 kts 238°
2026-05-07 14:45 31.15572 129.79484 42989 ft 432 kts 238°
2026-05-07 14:45 31.11998 129.73887 42989 ft 433 kts 238°
2026-05-07 14:46 31.08398 129.68255 42990 ft 433 kts 238°
2026-05-07 14:46 31.04785 129.62611 42990 ft 432 kts 238°
2026-05-07 14:47 31.01183 129.56993 42990 ft 433 kts 238°
2026-05-07 14:47 30.97598 129.51410 42990 ft 433 kts 238°
2026-05-07 14:48 30.94018 129.45757 42989 ft 432 kts 238°
2026-05-07 14:48 30.90436 129.40165 42989 ft 432 kts 238°
2026-05-07 14:49 30.86821 129.34557 42989 ft 433 kts 238°
2026-05-07 14:49 30.83204 129.28950 42997 ft 433 kts 238°
2026-05-07 14:50 30.70168 129.08897 42999 ft 434 kts 237°
2026-05-07 14:50 30.55392 128.86647 43001 ft 434 kts 238°
2026-05-07 14:51 30.40647 128.64303 43002 ft 436 kts 238°
2026-05-07 14:51 30.25872 128.42155 43001 ft 437 kts 238°
2026-05-07 14:52 30.10954 128.19907 43006 ft 438 kts 238°
2026-05-07 14:52 29.96012 127.97708 43006 ft 438 kts 237°
2026-05-07 14:53 29.80765 127.75621 43008 ft 440 kts 235°
2026-05-07 14:53 29.64597 127.54385 43001 ft 440 kts 236°
2026-05-07 14:54 29.48917 127.32706 43009 ft 439 kts 238°
2026-05-07 14:54 29.33847 127.10596 43013 ft 440 kts 237°
2026-05-07 14:55 29.18523 126.88598 43013 ft 441 kts 237°
2026-05-07 14:55 29.03174 126.66674 43013 ft 442 kts 237°
2026-05-07 14:56 28.87609 126.45101 43028 ft 444 kts 235°
2026-05-07 14:56 28.71536 126.23564 43035 ft 445 kts 236°
2026-05-07 14:57 28.55605 126.01911 43037 ft 446 kts 237°
2026-05-07 14:57 28.39997 125.79826 43033 ft 449 kts 237°
2026-05-07 14:58 28.26986 125.61562 43029 ft 448 kts 237°
2026-05-07 14:58 28.11314 125.39754 43027 ft 446 kts 237°
2026-05-07 14:59 27.95492 125.17841 43026 ft 448 kts 236°
2026-05-07 14:59 27.79618 124.95949 43026 ft 449 kts 237°
2026-05-07 15:00 27.63695 124.74145 43006 ft 449 kts 236°
2026-05-07 15:00 27.47773 124.52404 43000 ft 450 kts 236°
2026-05-07 15:01 27.31845 124.30662 43003 ft 450 kts 236°
2026-05-07 15:01 27.15960 124.09122 42999 ft 451 kts 236°
2026-05-07 15:02 26.99737 123.87440 43000 ft 454 kts 235°
2026-05-07 15:02 26.83384 123.65822 42997 ft 455 kts 236°
2026-05-07 15:03 26.66960 123.44188 42999 ft 456 kts 235°
2026-05-07 15:03 26.53006 123.25894 42996 ft 456 kts 235°
2026-05-07 15:04 26.48900 123.20477 42988 ft 456 kts 235°
2026-05-07 15:04 26.44776 123.15086 42759 ft 457 kts 235°
2026-05-07 15:05 26.42705 123.12386 42202 ft 458 kts 235°
2026-05-07 15:05 26.40669 123.09731 41663 ft 456 kts 235°
2026-05-07 15:05 26.38605 123.07043 41074 ft 455 kts 236°
2026-05-07 15:05 26.36553 123.04369 40475 ft 454 kts 236°
2026-05-07 15:06 26.34501 123.01699 39877 ft 453 kts 236°
2026-05-07 15:06 26.32452 122.99026 39271 ft 452 kts 236°
2026-05-07 15:06 26.30392 122.96362 38649 ft 452 kts 237°
2026-05-07 15:06 26.28340 122.93708 38011 ft 453 kts 236°
2026-05-07 15:07 26.26269 122.91031 37340 ft 457 kts 236°
2026-05-07 15:07 26.24189 122.88342 36656 ft 459 kts 236°
2026-05-07 15:07 26.22091 122.85632 35942 ft 461 kts 235°
2026-05-07 15:07 26.20000 122.82932 35323 ft 460 kts 234°
2026-05-07 15:08 26.17944 122.80279 34807 ft 455 kts 234°
2026-05-07 15:08 26.15891 122.77630 34296 ft 450 kts 233°
2026-05-07 15:08 26.12667 122.73416 33488 ft 443 kts 233°
2026-05-07 15:08 26.08674 122.68252 32491 ft 435 kts 232°
2026-05-07 15:09 26.04742 122.63204 31504 ft 429 kts 232°
2026-05-07 15:09 26.00873 122.58237 30522 ft 422 kts 232°
2026-05-07 15:09 25.97045 122.53323 29541 ft 415 kts 232°
2026-05-07 15:09 25.93301 122.48516 28554 ft 409 kts 232°
2026-05-07 15:10 25.89604 122.43757 27565 ft 405 kts 232°
2026-05-07 15:10 25.85942 122.39048 26579 ft 401 kts 231°
2026-05-07 15:10 25.82321 122.34392 25599 ft 394 kts 231°
2026-05-07 15:10 25.78787 122.29808 24635 ft 390 kts 231°
2026-05-07 15:11 25.75257 122.25270 23674 ft 386 kts 231°
2026-05-07 15:11 25.71767 122.20802 22727 ft 380 kts 231°
2026-05-07 15:11 25.68337 122.16415 21795 ft 372 kts 231°
2026-05-07 15:11 25.66617 122.14215 21327 ft 369 kts 231°
2026-05-07 15:12 25.64938 122.12069 20872 ft 367 kts 231°
2026-05-07 15:12 25.63271 122.09937 20419 ft 364 kts 232°
2026-05-07 15:12 25.61921 122.07641 19991 ft 359 kts 245°
2026-05-07 15:12 25.60952 122.05113 19651 ft 356 kts 250°
2026-05-07 15:13 25.60156 122.02512 19298 ft 354 kts 253°
2026-05-07 15:13 25.59476 121.99903 18957 ft 352 kts 255°
2026-05-07 15:13 25.58812 121.97165 18604 ft 350 kts 255°
2026-05-07 15:13 25.57538 121.92004 17941 ft 346 kts 255°
2026-05-07 15:14 25.56263 121.86861 17281 ft 344 kts 255°
2026-05-07 15:14 25.54973 121.81807 16632 ft 341 kts 254°
2026-05-07 15:14 25.53674 121.76775 15987 ft 339 kts 254°
2026-05-07 15:14 25.52382 121.71784 15348 ft 335 kts 254°
2026-05-07 15:15 25.51160 121.67065 14742 ft 334 kts 254°
2026-05-07 15:15 25.50521 121.64598 14427 ft 332 kts 254°
2026-05-07 15:15 25.49886 121.62145 14113 ft 332 kts 254°
2026-05-07 15:15 25.49246 121.59688 13797 ft 330 kts 253°
2026-05-07 15:16 25.48295 121.57394 13487 ft 331 kts 240°
2026-05-07 15:16 25.46995 121.55288 13168 ft 331 kts 234°
2026-05-07 15:16 25.45533 121.53329 12852 ft 330 kts 230°
2026-05-07 15:16 25.44006 121.51462 12568 ft 325 kts 230°
2026-05-07 15:17 25.42519 121.49613 12261 ft 318 kts 231°
2026-05-07 15:17 25.41080 121.47782 11964 ft 313 kts 231°
2026-05-07 15:17 25.39665 121.45970 11668 ft 307 kts 231°
2026-05-07 15:17 25.38278 121.44199 11378 ft 302 kts 231°
2026-05-07 15:18 25.36914 121.42459 11093 ft 297 kts 231°
2026-05-07 15:18 25.35586 121.40766 10816 ft 293 kts 230°
2026-05-07 15:18 25.34263 121.39079 10541 ft 288 kts 230°
2026-05-07 15:18 25.32958 121.37415 10268 ft 284 kts 230°
2026-05-07 15:19 25.31683 121.35771 10000 ft 280 kts 230°
2026-05-07 15:19 25.30423 121.34152 9736 ft 276 kts 230°
2026-05-07 15:19 25.29181 121.32563 9478 ft 272 kts 230°
2026-05-07 15:19 25.27949 121.30991 9222 ft 269 kts 230°
2026-05-07 15:20 25.26714 121.29417 8966 ft 271 kts 230°
2026-05-07 15:20 25.25483 121.27851 8708 ft 269 kts 230°
2026-05-07 15:20 25.24253 121.26286 8453 ft 269 kts 229°
2026-05-07 15:20 25.23031 121.24732 8197 ft 268 kts 229°
2026-05-07 15:21 25.21809 121.23180 7944 ft 268 kts 229°
2026-05-07 15:21 25.20591 121.21634 7690 ft 266 kts 229°
2026-05-07 15:21 25.19395 121.20115 7441 ft 265 kts 229°
2026-05-07 15:21 25.18189 121.18584 7190 ft 264 kts 229°
2026-05-07 15:22 25.16982 121.17051 6939 ft 264 kts 229°
2026-05-07 15:22 25.15780 121.15526 6689 ft 262 kts 229°
2026-05-07 15:22 25.14584 121.14009 6440 ft 262 kts 229°
2026-05-07 15:22 25.13388 121.12492 6191 ft 261 kts 229°
2026-05-07 15:23 25.12198 121.10983 5943 ft 260 kts 229°
2026-05-07 15:23 25.11016 121.09478 5697 ft 259 kts 229°
2026-05-07 15:23 25.09837 121.07978 5452 ft 258 kts 229°
2026-05-07 15:23 25.08661 121.06484 5207 ft 258 kts 229°
2026-05-07 15:24 25.07507 121.04964 4963 ft 257 kts 234°
2026-05-07 15:24 25.06619 121.03263 4727 ft 257 kts 243°
2026-05-07 15:24 25.05873 121.01472 4486 ft 256 kts 245°
2026-05-07 15:24 25.05166 120.99672 4262 ft 256 kts 246°
2026-05-07 15:25 25.04458 120.97873 4135 ft 255 kts 246°
2026-05-07 15:25 25.03753 120.96081 4056 ft 255 kts 246°
2026-05-07 15:25 25.03054 120.94304 4000 ft 255 kts 246°
2026-05-07 15:25 25.02347 120.92507 4002 ft 255 kts 246°
2026-05-07 15:26 25.01642 120.90715 4003 ft 255 kts 246°
2026-05-07 15:26 25.00729 120.89053 4006 ft 254 kts 226°
2026-05-07 15:26 24.99288 120.87931 4006 ft 255 kts 210°
2026-05-07 15:26 24.97715 120.87037 4000 ft 254 kts 207°
2026-05-07 15:27 24.96093 120.86277 4006 ft 254 kts 195°
2026-05-07 15:27 24.94335 120.86106 4018 ft 255 kts 181°
2026-05-07 15:27 24.92559 120.86213 4011 ft 255 kts 177°
2026-05-07 15:27 24.90843 120.86597 4007 ft 248 kts 158°
2026-05-07 15:28 24.89504 120.87683 3976 ft 233 kts 133°
2026-05-07 15:28 24.88789 120.89219 3970 ft 221 kts 112°
2026-05-07 15:28 24.88401 120.90775 3988 ft 201 kts 108°
2026-05-07 15:28 24.88070 120.92250 4018 ft 196 kts 106°
2026-05-07 15:29 24.87739 120.93705 3986 ft 195 kts 106°
2026-05-07 15:29 24.87410 120.95138 4006 ft 197 kts 103°
2026-05-07 15:29 24.87510 120.96619 4001 ft 199 kts 69°
2026-05-07 15:29 24.88301 120.97899 4000 ft 201 kts 53°
2026-05-07 15:30 24.89237 120.99009 4007 ft 200 kts 48°
2026-05-07 15:30 24.90206 121.00100 4003 ft 199 kts 47°
2026-05-07 15:30 24.91155 121.01213 4004 ft 199 kts 48°
2026-05-07 15:30 24.92086 121.02347 4003 ft 199 kts 49°
2026-05-07 15:31 24.93005 121.03489 4003 ft 199 kts 49°
2026-05-07 15:31 24.93916 121.04633 4001 ft 199 kts 49°
2026-05-07 15:31 24.94834 121.05792 3783 ft 199 kts 49°
2026-05-07 15:31 24.95745 121.06944 3506 ft 198 kts 49°
2026-05-07 15:32 24.96645 121.08085 3239 ft 197 kts 49°
2026-05-07 15:32 24.97542 121.09222 2981 ft 196 kts 50°
2026-05-07 15:32 24.98420 121.10336 2754 ft 189 kts 50°
2026-05-07 15:32 24.99260 121.11402 2480 ft 183 kts 50°
2026-05-07 15:33 25.00079 121.12441 2232 ft 177 kts 50°
2026-05-07 15:33 25.00875 121.13451 2009 ft 172 kts 50°
2026-05-07 15:33 25.01642 121.14424 1818 ft 165 kts 50°
2026-05-07 15:33 25.02384 121.15366 1571 ft 160 kts 50°
2026-05-07 15:34 25.03103 121.16280 1378 ft 156 kts 50°
2026-05-07 15:34 25.03808 121.17175 1152 ft 153 kts 50°
2026-05-07 15:34 25.04505 121.18059 945 ft 152 kts 50°
2026-05-07 15:34 25.05197 121.18939 741 ft 152 kts 50°
2026-05-07 15:35 25.05886 121.19819 547 ft 151 kts 51°
2026-05-07 15:35 25.06579 121.20694 345 ft 151 kts 50°
2026-05-07 15:35 25.07268 121.21573 154 ft 151 kts 50°
2026-05-07 15:35 25.07908 121.22387 121 ft 125 kts 49°
2026-05-07 15:36 25.08316 121.22906 121 ft 56 kts 48°
2026-05-07 15:36 25.08516 121.23158 121 ft 38 kts 49°
2026-05-07 15:36 25.08666 121.23360 121 ft 31 kts 62°
2026-05-07 15:36 25.08716 121.23553 121 ft 22 kts 79°
2026-05-07 15:37 25.08736 121.23668 121 ft 10 kts 79°
2026-05-07 15:37 25.08746 121.23725 121 ft 7 kts 79°
2026-05-07 15:37 25.08756 121.23779 121 ft 7 kts 72°
2026-05-07 15:37 25.08778 121.23814 121 ft 5 kts 50°
2026-05-07 15:38 25.08798 121.23841 121 ft 4 kts 49°
2026-05-07 15:38 25.08818 121.23866 121 ft 4 kts 49°
2026-05-07 15:38 25.08837 121.23890 121 ft 4 kts 49°
2026-05-07 15:38 25.08854 121.23913 121 ft 4 kts 49°
2026-05-07 15:39 25.08871 121.23935 121 ft 4 kts 49°
2026-05-07 15:39 25.08888 121.23955 121 ft 3 kts 49°
2026-05-07 15:39 25.08896 121.23979 121 ft 3 kts 90°
2026-05-07 15:39 25.08886 121.24002 121 ft 3 kts 130°
2026-05-07 15:40 25.08869 121.24019 121 ft 3 kts 137°
2026-05-07 15:40 25.08854 121.24034 121 ft 3 kts 138°
2026-05-07 15:40 25.08839 121.24049 121 ft 3 kts 138°
2026-05-07 15:40 25.08827 121.24061 121 ft 0 kts 139°